[[{"header":{"parameterUnit":"m.s-1","parameterCategory":2,"la1":30.2991,"la2":30.254,"lo1":-89.0895,"lo2":-89.0444,"dx":0.0017,"dy":0.0017,"nx":28,"ny":28,"refTime":"2022-12-14T09:00:00:Z","depth":"0","parameterNumber":2,"parameterNumberName":"U-component_of_CURRENTS"},"data":[0,0,0,0,0,0,0,0,0,0,0,0,0,0,0,0,0,0,0,0,0,0,0,0,0,0,0,0,0,0,0,0,0,0,0,0,0,0,0,0,0,0,0,0,0,0,0,0,0,0,0,0,0,0,0,0,0,0,0.206,0.2061,0,0.2088,0.2088,0.2088,0.2083,0.2083,0.2083,0.2082,0.2084,0.2085,0.2085,0,0,0,0,0,0,0,0,0,0,0,0,0,0.2003,0.2004,0.206,0.2061,0.2061,0.2088,0.2088,0.2088,0.2083,0.2083,0.2083,0.2082,0.2084,0.2085,0.2085,0,0,0,0,0,0,0,0,0,0,0,0,0,0.2027,0.2005,0.206,0.2064,0.2065,0.2088,0.2088,0.2088,0.2083,0.2083,0.2082,0.2082,0.2084,0.2085,0.2085,0.2095,0,0,0.2086,0.2087,0,0,0,0,0,0,0,0,0.2026,0.2029,0.2063,0.2064,0.2065,0.2084,0.2069,0.209,0.2083,0.2074,0.2082,0.2082,0.2084,0.2084,0.2087,0.2095,0.2096,0.2086,0.2087,0.2087,0.2087,0,0,0,0,0,0,0,0.2024,0.2027,0.2069,0.2064,0.2065,0.2065,0.2067,0.2073,0.2078,0.2074,0.2075,0.2082,0.2084,0.2087,0.2087,0.2096,0.2086,0.2087,0.2087,0.2087,0.2147,0.2148,0,0,0,0,0,0,0.2026,0.2026,0.2068,0.207,0.2047,0.2066,0.2069,0.2076,0.2079,0.208,0.2082,0.2082,0.2086,0.2086,0.2087,0.2123,0.2087,0.2087,0.2087,0.2146,0.2147,0.2149,0,0,0,0,0,0,0.2025,0.203,0.2067,0.205,0.2055,0.2068,0.2076,0.2077,0.2084,0.2085,0.2085,0.2088,0.2086,0.2086,0.2103,0.2122,0.2087,0.2088,0.2144,0.2146,0.2148,0.218,0,0,0,0,0,0,0.2023,0.2029,0.2035,0.2051,0.2056,0.2087,0.2076,0.2078,0.209,0.2089,0.2091,0.209,0.2086,0.2103,0.2104,0.2122,0.2088,0.2143,0.2145,0.2148,0.2177,0.2183,0.2188,0,0,0,0,0,0.2021,0.2031,0.2035,0.204,0.2064,0.2088,0.2091,0.2096,0.209,0.2099,0.2103,0.209,0.212,0.2104,0.2105,0.2124,0.2141,0.2144,0.2147,0.2175,0.2182,0.2188,0,0,0,0,0,0,0.2009,0.2032,0.2036,0.2053,0.2073,0.2088,0.2097,0.2101,0.211,0.2109,0.2104,0.2105,0.2129,0.2125,0.2108,0.2151,0.213,0.2133,0.2151,0.2157,0.2162,0.2159,0.2089,0,0,0,0,0,0.201,0.2023,0.2046,0.206,0.2071,0.2085,0.2095,0.2101,0.2113,0.2116,0.2119,0.2127,0.2142,0.2147,0.2158,0.2178,0.2186,0.2193,0.2198,0.2202,0.2202,0.2235,0.2243,0.2159,0.2159,0.2159,0,0,0.2009,0.2025,0.2031,0.2059,0.2073,0.2092,0.2089,0.211,0.2126,0.2116,0.2135,0.2144,0.2153,0.2178,0.2188,0.2176,0.2235,0.2206,0.2209,0.2207,0.2239,0.2247,0.2254,0.2161,0.216,0.216,0,0,0.2012,0.2029,0.204,0.2059,0.2087,0.21,0.2108,0.213,0.2139,0.2163,0.2164,0.2184,0.2201,0.2214,0.2222,0.2263,0.2262,0.227,0.229,0.2323,0.233,0.2336,0.237,0.2379,0.227,0.227,0.227,0,0.2009,0.2027,0.2047,0.2066,0.2081,0.2105,0.212,0.2141,0.2165,0.2177,0.2173,0.2214,0.2218,0.2255,0.2271,0.2273,0.2293,0.2263,0.2329,0.2335,0.234,0.2374,0.2383,0.2272,0.2272,0.2272,0.2272,0,0.202,0.2037,0.2048,0.2078,0.2099,0.2119,0.2151,0.2172,0.2186,0.2205,0.2244,0.2259,0.2281,0.2293,0.2293,0.2341,0.2344,0.2332,0.2309,0.2351,0.2384,0.2393,0.2275,0.2274,0.2274,0.2273,0,0,0.2001,0.2045,0.2048,0.206,0.2106,0.212,0.2158,0.2195,0.222,0.225,0.2282,0.2315,0.2326,0.2337,0.2347,0.2375,0.2436,0.2373,0.2374,0.2401,0.2517,0.2529,0.254,0.2438,0.244,0.2441,0.2529,0,0.2001,0.2026,0.2053,0.2079,0.2093,0.2132,0.2166,0.2204,0.224,0.2281,0.2312,0.2349,0.2344,0.2362,0.2391,0.2427,0.246,0.2414,0.2478,0.248,0.248,0.2551,0.2531,0.2608,0.2538,0.2539,0.254,0,0.1996,0.2015,0.2034,0.2075,0.2085,0.2107,0.2159,0.2197,0.2268,0.2297,0.2344,0.2373,0.2429,0.2414,0.2496,0.247,0.2497,0.252,0.2524,0.2527,0.2509,0.2554,0.2628,0.2614,0.2554,0.2553,0.2552,0,0.1958,0.1998,0.2008,0.2023,0.2077,0.2093,0.2128,0.2196,0.2233,0.2315,0.2352,0.2416,0.2461,0.2502,0.2561,0.2532,0.2654,0.2615,0.2652,0.2653,0.2644,0.2641,0.2704,0.2671,0.2671,0.2671,0.267,0,0.1943,0.1952,0.1988,0.1995,0.2016,0.2065,0.2104,0.2155,0.223,0.2285,0.2358,0.2415,0.2487,0.2563,0.259,0.267,0.2681,0.2676,0.2684,0.2656,0.2654,0.2646,0.2623,0.2674,0.2673,0.2672,0.2672,0,0.1905,0.1928,0.1942,0.1986,0.1997,0.2015,0.2082,0.2119,0.2201,0.2277,0.2307,0.2431,0.2545,0.2622,0.2713,0.272,0.2724,0.28,0.277,0.2773,0.2762,0.2741,0.261,0.253,0.2843,0.2844,0.2845,0,0.1891,0.1892,0.1922,0.1931,0.195,0.1984,0.2014,0.2092,0.2137,0.2286,0.232,0.2465,0.2565,0.2725,0.279,0.2871,0.277,0.2873,0.2804,0.2782,0.2765,0.2565,0.2491,0.2811,0.2811,0.2811,0.2812,0,0.1873,0.1878,0.1893,0.1903,0.1922,0.1944,0.1992,0.2013,0.2123,0.2201,0.2322,0.2418,0.2616,0.2723,0.2853,0.2882,0.2757,0.2881,0.287,0.2764,0.2538,0.2459,0.2732,0.2815,0.2815,0.2814,0.2814,0.2814,0.1864,0.1862,0.1874,0.1878,0.1894,0.1898,0.1895,0.1963,0.2025,0.2131,0.2261,0.24,0.2639,0.2831,0.2838,0.2901,0.2774,0.2865,0.2849,0.2652,0.2543,0.2827,0.2907,0.2907,0.2908,0.2908,0.2908,0,0.1843,0.1839,0.185,0.1843,0.1832,0.1853,0.1873,0.1865,0.1912,0.2078,0.2182,0.2448,0.2615,0.2776,0.2953,0.2903,0.2698,0.2853,0.2594,0.2528,0.2832,0.2804,0.2853,0.2853,0.2853,0.2853,0.2853,0.2853,0.1836,0.1823,0.1816,0.1777,0.1768,0.1725,0.1714,0.1724,0.1813,0.1963,0.213,0.2277,0.2633,0.2922,0.2988,0.2918,0.2675,0.2572,0.2499,0.2793,0.2792,0.2791,0.2761,0.28,0.28,0.2086,0.2082,0.2078]},{"header":{"parameterUnit":"m.s-1","parameterCategory":2,"la1":30.2991,"la2":30.254,"lo1":-89.0895,"lo2":-89.0444,"dx":0.0017,"dy":0.0017,"nx":28,"ny":28,"refTime":"2022-12-14T09:00:00:Z","depth":"0","parameterNumber":3,"parameterNumberName":"V-component_of_CURRENTS"},"data":[0,0,0,0,0,0,0,0,0,0,0,0,0,0,0,0,0,0,0,0,0,0,0,0,0,0,0,0,0,0,0,0,0,0,0,0,0,0,0,0,0,0,0,0,0,0,0,0,0,0,0,0,0,0,0,0,0,0,0.0121,0.0121,0,0.0046,0.0045,0.0044,-0.0005,-0.0005,-0.0005,-0.0005,-0.0107,-0.011,-0.0112,0,0,0,0,0,0,0,0,0,0,0,0,0,0.0183,0.0182,0.0122,0.0121,0.012,0.0046,0.0045,0.0043,-0.0005,-0.0005,-0.0005,-0.0006,-0.0106,-0.0109,-0.0112,0,0,0,0,0,0,0,0,0,0,0,0,0,0.0136,0.0182,0.0122,0.0088,0.0084,0.0046,0.0045,0.0043,-0.0005,-0.0005,-0.0005,-0.0006,-0.0105,-0.0109,-0.0113,-0.013,0,0,-0.0124,-0.0126,0,0,0,0,0,0,0,0,0.0139,0.0134,0.0093,0.009,0.0086,0.003,0.0029,-0.0016,-0.0005,0.0028,-0.0005,-0.0006,-0.0063,-0.007,-0.0085,-0.0135,-0.0139,-0.0125,-0.0127,-0.0129,-0.013,0,0,0,0,0,0,0,0.0142,0.0136,0.009,0.0093,0.0088,0.0062,0.0055,0.002,-0.0016,0.0025,0.0021,0.0015,-0.0065,-0.0081,-0.0087,-0.0141,-0.0125,-0.0128,-0.013,-0.0132,-0.0206,-0.0206,0,0,0,0,0,0,0.0156,0.014,0.0093,0.0088,0.0113,0.0061,0.0053,0.0048,-0.0015,-0.0025,0.0015,0.0013,-0.0074,-0.0083,-0.0091,-0.0102,-0.0129,-0.0132,-0.0134,-0.0207,-0.0206,-0.0206,0,0,0,0,0,0,0.0157,0.0152,0.0096,0.0113,0.0104,0.0061,0.0054,0.0046,0.0031,-0.0022,-0.0032,0.0009,-0.0075,-0.0086,-0.0117,-0.0107,-0.0134,-0.0137,-0.0207,-0.0207,-0.0206,-0.0132,0,0,0,0,0,0,0.016,0.0154,0.0155,0.0114,0.0104,0.0081,0.0054,0.0045,0.0028,0.0024,-0.0031,-0.0041,-0.0076,-0.0111,-0.0121,-0.0113,-0.014,-0.0207,-0.0207,-0.0206,-0.0135,-0.0129,-0.0125,0,0,0,0,0,0.0162,0.0169,0.0156,0.015,0.0107,0.0081,0.0073,0.0041,0.0028,0.0025,-0.0011,-0.0039,-0.0115,-0.0114,-0.0126,-0.0118,-0.0208,-0.0207,-0.0206,-0.0137,-0.0131,-0.0125,0,0,0,0,0,0,0.0197,0.0163,0.0148,0.0145,0.0118,0.0073,0.007,0.0046,0.0015,0.0013,-0.0039,-0.0051,-0.0074,-0.0107,-0.0105,-0.0138,-0.0165,-0.0166,-0.0109,-0.0103,-0.0097,-0.008,-0.0143,0,0,0,0,0,0.0206,0.0203,0.0165,0.0163,0.0153,0.0112,0.0098,0.0077,0.0043,0.0029,-0.0009,-0.0048,-0.0081,-0.0099,-0.0134,-0.0153,-0.0179,-0.0156,-0.015,-0.0146,-0.014,-0.0171,-0.0167,-0.0204,-0.0204,-0.0204,0,0,0.0218,0.0201,0.0198,0.017,0.0147,0.014,0.0103,0.0089,0.0083,0.0023,0.0007,-0.0032,-0.0082,-0.0102,-0.0115,-0.0128,-0.0147,-0.0145,-0.014,-0.0137,-0.0169,-0.0166,-0.0163,-0.0203,-0.0204,-0.0204,0,0,0.0247,0.0228,0.0235,0.0218,0.0191,0.0166,0.0165,0.0126,0.0109,0.0086,0.0045,0.0014,-0.0038,-0.0069,-0.0092,-0.0079,-0.0118,-0.009,-0.005,-0.008,-0.0077,-0.0074,-0.0091,-0.0091,-0.0087,-0.0087,-0.0087,0,0.0265,0.0266,0.0233,0.0236,0.0229,0.0183,0.019,0.0166,0.0122,0.0113,0.0092,0.0022,-0.0021,-0.0045,-0.0041,-0.0066,-0.0086,-0.0068,-0.0071,-0.007,-0.0069,-0.0087,-0.0087,-0.0083,-0.0084,-0.0084,-0.0084,0,0.0294,0.0296,0.0301,0.029,0.0277,0.0276,0.0242,0.0231,0.0205,0.0176,0.0147,0.0089,0.0048,0.003,-0.0004,-0.0015,-0.0032,-0.006,-0.0083,-0.006,-0.0081,-0.0083,-0.0078,-0.0079,-0.008,-0.0081,0,0,0.0331,0.0324,0.0326,0.0332,0.0307,0.0301,0.0299,0.028,0.0284,0.0236,0.0233,0.017,0.0137,0.0108,0.0062,0.0034,0.0025,-0.0003,-0.0006,-0.0011,-0.0029,-0.004,-0.0044,-0.0003,-0.0003,-0.0003,-0.0042,0,0.0365,0.0389,0.0371,0.0392,0.0401,0.0368,0.0372,0.035,0.0323,0.031,0.0249,0.0224,0.0167,0.0152,0.0115,0.0046,0.0021,0.0038,-0.0058,-0.0061,-0.0067,-0.0046,-0.0007,-0.0038,-0.0044,-0.0044,-0.0045,0,0.0397,0.0411,0.0439,0.045,0.0451,0.0454,0.0454,0.0454,0.0423,0.0402,0.0364,0.0312,0.0264,0.0213,0.0114,0.0128,0.006,0.0004,0.0001,-0.0037,-0.0076,-0.0066,-0.0042,-0.016,-0.0048,-0.0048,-0.0048,0,0.0438,0.0456,0.0483,0.0484,0.0488,0.0496,0.05,0.0482,0.0496,0.0463,0.0466,0.0389,0.0363,0.0263,0.0146,0.0129,0.0042,-0.0,-0.0073,-0.0074,-0.0074,-0.0075,-0.0169,-0.0065,-0.0065,-0.0065,-0.0065,0,0.0477,0.0498,0.0505,0.052,0.0561,0.0545,0.0583,0.0574,0.0576,0.0609,0.0521,0.0529,0.0375,0.0303,0.0182,0.0059,0.0067,-0.0058,-0.0084,-0.0047,-0.0045,-0.0176,-0.025,-0.0067,-0.0066,-0.0066,-0.0066,0,0.0513,0.0516,0.0552,0.057,0.0581,0.0612,0.065,0.068,0.067,0.0712,0.0709,0.0639,0.0548,0.0395,0.024,0.0118,-0.0075,-0.0056,0.0006,-0.0013,-0.0206,-0.0276,-0.0409,-0.0463,-0.0148,-0.0149,-0.0149,0,0.0533,0.0555,0.0594,0.0626,0.0635,0.068,0.0719,0.0729,0.0768,0.079,0.0819,0.0747,0.0719,0.0487,0.0265,0.006,-0.0072,-0.0059,-0.0097,-0.0204,-0.0303,-0.0358,-0.0399,-0.0064,-0.0063,-0.0063,-0.0063,0,0.0581,0.059,0.0622,0.0686,0.0731,0.079,0.0844,0.0891,0.092,0.0961,0.1006,0.0991,0.0785,0.0602,0.0311,0.0151,-0.0136,-0.0062,-0.019,-0.0256,-0.0305,-0.0373,-0.0048,-0.0061,-0.0061,-0.0061,-0.0061,-0.0061,0.0618,0.0652,0.0694,0.0752,0.0812,0.0889,0.0946,0.1015,0.1101,0.1183,0.1164,0.1196,0.0929,0.0542,0.0289,-0.0111,-0.0132,-0.0226,-0.0305,-0.0352,-0.0404,-0.0069,-0.0106,-0.0107,-0.0107,-0.0107,-0.0108,0,0.0667,0.0701,0.0759,0.0833,0.0903,0.0923,0.1024,0.1089,0.1203,0.1319,0.1374,0.1333,0.0962,0.0578,0.0053,-0.0265,-0.04,-0.0449,-0.0517,-0.0549,-0.0258,-0.0253,-0.0301,-0.0301,-0.0301,-0.0301,-0.0301,-0.0301,0.07,0.0758,0.0782,0.0895,0.0949,0.1047,0.1107,0.1214,0.1317,0.149,0.1592,0.1647,0.1466,0.0386,-0.0297,-0.0481,-0.0708,-0.0771,-0.0896,-0.0694,-0.0679,-0.0664,-0.0677,-0.0814,-0.0814,-0.1128,-0.1131,-0.1134]}],[{"header":{"parameterUnit":"m.s-1","parameterCategory":2,"la1":30.2991,"la2":30.254,"lo1":-89.0895,"lo2":-89.0444,"dx":0.0017,"dy":0.0017,"nx":28,"ny":28,"refTime":"2022-12-14T09:00:00:Z","depth":"2","parameterNumber":2,"parameterNumberName":"U-component_of_CURRENTS"},"data":[0,0,0,0,0,0,0,0,0,0,0,0,0,0,0,0,0,0,0,0,0,0,0,0,0,0,0,0,0,0,0,0,0,0,0,0,0,0,0,0,0,0,0,0,0,0,0,0,0,0,0,0,0,0,0,0,0,0,0.2026,0.2027,0,0.2055,0.2055,0.2055,0.2055,0.2054,0.2054,0.2054,0.2061,0.2061,0.2062,0,0,0,0,0,0,0,0,0,0,0,0,0,0.197,0.1971,0.2026,0.2027,0.2028,0.2055,0.2055,0.2056,0.2055,0.2054,0.2054,0.2054,0.2061,0.2061,0.2062,0,0,0,0,0,0,0,0,0,0,0,0,0,0.1994,0.1971,0.2026,0.2032,0.2033,0.2055,0.2055,0.2056,0.2055,0.2054,0.2054,0.2054,0.2061,0.2061,0.2062,0.207,0,0,0.2063,0.2064,0,0,0,0,0,0,0,0,0.1992,0.1995,0.2031,0.2032,0.2033,0.2053,0.2038,0.206,0.2055,0.2044,0.2054,0.2054,0.2058,0.2059,0.2062,0.2071,0.2071,0.2063,0.2064,0.2064,0.2064,0,0,0,0,0,0,0,0.1991,0.1994,0.2035,0.2031,0.2033,0.2033,0.2036,0.2042,0.205,0.2045,0.2045,0.2053,0.2058,0.2061,0.2062,0.2071,0.2063,0.2064,0.2064,0.2064,0.2126,0.2127,0,0,0,0,0,0,0.1993,0.1993,0.2034,0.2036,0.2014,0.2035,0.2038,0.2045,0.205,0.2052,0.2053,0.2052,0.206,0.2061,0.2062,0.21,0.2064,0.2064,0.2065,0.2124,0.2126,0.2127,0,0,0,0,0,0,0.1991,0.1996,0.2033,0.2017,0.2022,0.2036,0.2044,0.2046,0.2054,0.2057,0.2057,0.2061,0.206,0.2061,0.208,0.2099,0.2065,0.2065,0.2123,0.2125,0.2127,0.2159,0,0,0,0,0,0,0.1989,0.1995,0.2002,0.2017,0.2023,0.2054,0.2045,0.2047,0.206,0.206,0.2064,0.2064,0.206,0.2079,0.208,0.2099,0.2065,0.2121,0.2124,0.2126,0.2156,0.2162,0.2166,0,0,0,0,0,0.1987,0.1997,0.2002,0.2007,0.2031,0.2055,0.2058,0.2065,0.2061,0.207,0.2075,0.2064,0.2096,0.2081,0.2082,0.2101,0.212,0.2123,0.2126,0.2154,0.216,0.2166,0,0,0,0,0,0,0.1975,0.1999,0.2004,0.202,0.204,0.2056,0.2066,0.207,0.2081,0.2081,0.2078,0.2079,0.2104,0.2101,0.2084,0.2128,0.2107,0.2111,0.2128,0.2135,0.214,0.2137,0.2066,0,0,0,0,0,0.1977,0.1991,0.2013,0.2028,0.2039,0.2053,0.2063,0.2071,0.2083,0.2088,0.2092,0.2101,0.2117,0.2124,0.2135,0.2155,0.2163,0.2171,0.2176,0.218,0.2181,0.2213,0.222,0.2137,0.2137,0.2137,0,0,0.1976,0.1992,0.1999,0.2027,0.2041,0.206,0.2058,0.2079,0.2096,0.2087,0.2109,0.2119,0.2128,0.2154,0.2165,0.2153,0.2212,0.2184,0.2188,0.2186,0.2217,0.2225,0.2232,0.2139,0.2139,0.2138,0,0,0.198,0.1997,0.2008,0.2028,0.2056,0.2069,0.2078,0.21,0.211,0.2135,0.2137,0.2159,0.2177,0.2191,0.2199,0.2239,0.2239,0.2247,0.2268,0.23,0.2307,0.2313,0.2344,0.2353,0.2248,0.2248,0.2248,0,0.1978,0.1996,0.2016,0.2034,0.205,0.2074,0.209,0.2111,0.2136,0.2149,0.2146,0.219,0.2195,0.2231,0.2248,0.225,0.2269,0.2241,0.2306,0.2312,0.2317,0.2348,0.2357,0.225,0.225,0.225,0.225,0,0.1988,0.2007,0.2018,0.2048,0.2068,0.2089,0.212,0.2143,0.2159,0.2178,0.2218,0.2234,0.2258,0.227,0.227,0.2318,0.232,0.2309,0.2286,0.2328,0.2358,0.2367,0.2253,0.2252,0.2252,0.2251,0,0,0.1971,0.2015,0.2018,0.203,0.2076,0.209,0.2129,0.2166,0.2191,0.2223,0.2255,0.229,0.2302,0.2313,0.2324,0.2352,0.2411,0.235,0.2351,0.2376,0.2489,0.2492,0.2501,0.2414,0.2415,0.2417,0.2498,0,0.1971,0.1996,0.2023,0.205,0.2065,0.2103,0.2137,0.2176,0.2212,0.2253,0.2286,0.2323,0.232,0.2339,0.2368,0.2403,0.2435,0.2391,0.245,0.2452,0.2445,0.2512,0.232,0.2377,0.2506,0.2508,0.2509,0,0.1967,0.1986,0.2006,0.2047,0.2058,0.208,0.2133,0.217,0.224,0.2271,0.2318,0.2347,0.2404,0.239,0.247,0.2445,0.247,0.2492,0.2496,0.249,0.2471,0.2356,0.2388,0.2523,0.2522,0.2521,0.252,0,0.193,0.1971,0.1982,0.1997,0.2051,0.2068,0.2104,0.2171,0.2207,0.2289,0.2327,0.239,0.2435,0.2475,0.2532,0.2505,0.2621,0.2584,0.261,0.261,0.2455,0.2439,0.2637,0.2637,0.2637,0.2637,0.2636,0,0.1916,0.1926,0.1964,0.1972,0.1994,0.2043,0.2083,0.2133,0.2208,0.2261,0.2334,0.239,0.2461,0.2534,0.256,0.2631,0.2647,0.2632,0.2639,0.2463,0.2448,0.2572,0.2563,0.264,0.2639,0.2638,0.2638,0,0.1878,0.1903,0.1918,0.1963,0.1976,0.1995,0.2063,0.2099,0.2181,0.2256,0.2286,0.2406,0.2514,0.2587,0.2674,0.2677,0.2732,0.2748,0.2547,0.2529,0.2688,0.268,0.2775,0.2776,0.2777,0.2777,0.2778,0,0.1865,0.1867,0.19,0.191,0.1931,0.1966,0.1997,0.2074,0.2118,0.2264,0.2297,0.2436,0.2524,0.2672,0.2709,0.2775,0.2789,0.2625,0.2534,0.2709,0.2706,0.2696,0.2688,0.2339,0.2336,0.2334,0.2332,0,0.1848,0.1854,0.1871,0.1884,0.1904,0.1927,0.1976,0.1997,0.2105,0.2178,0.2291,0.2376,0.2539,0.2543,0.2651,0.2647,0.2598,0.2578,0.2815,0.2346,0.2308,0.2302,0.2305,0.2309,0.2311,0.2313,0.2314,0.2315,0.1841,0.1839,0.1855,0.186,0.188,0.1883,0.188,0.1946,0.2003,0.2085,0.2206,0.2279,0.2365,0.2441,0.2406,0.2385,0.2552,0.2433,0.2436,0.2442,0.2389,0.2356,0.2356,0.2359,0.2361,0.2363,0.2364,0,0.1822,0.182,0.1832,0.1829,0.1819,0.1842,0.1861,0.1844,0.1882,0.1995,0.2071,0.1981,0.2032,0.2104,0.206,0.2099,0.2015,0.1999,0.1866,0.1894,0.1918,0.1831,0.1653,0.1651,0.1648,0.1645,0,0,0.1817,0.1805,0.1797,0.1762,0.1758,0.1715,0.1703,0.1696,0.1744,0.1751,0.1782,0.1946,0.2075,0.1833,0.1831,0.1735,0.1781,0.1665,0.2249,0.2123,0.2142,0.2203,0.2108,0,0,0,0,0]},{"header":{"parameterUnit":"m.s-1","parameterCategory":2,"la1":30.2991,"la2":30.254,"lo1":-89.0895,"lo2":-89.0444,"dx":0.0017,"dy":0.0017,"nx":28,"ny":28,"refTime":"2022-12-14T09:00:00:Z","depth":"2","parameterNumber":3,"parameterNumberName":"V-component_of_CURRENTS"},"data":[0,0,0,0,0,0,0,0,0,0,0,0,0,0,0,0,0,0,0,0,0,0,0,0,0,0,0,0,0,0,0,0,0,0,0,0,0,0,0,0,0,0,0,0,0,0,0,0,0,0,0,0,0,0,0,0,0,0,0.002,0.0019,0,-0.0054,-0.0055,-0.0055,-0.01,-0.01,-0.0101,-0.0101,-0.0198,-0.0201,-0.0203,0,0,0,0,0,0,0,0,0,0,0,0,0,0.0079,0.0078,0.002,0.0019,0.0018,-0.0053,-0.0055,-0.0056,-0.01,-0.01,-0.0101,-0.0101,-0.0197,-0.02,-0.0203,0,0,0,0,0,0,0,0,0,0,0,0,0,0.0034,0.0078,0.002,-0.0012,-0.0016,-0.0053,-0.0055,-0.0056,-0.01,-0.01,-0.0101,-0.0101,-0.0196,-0.02,-0.0204,-0.0223,0,0,-0.0215,-0.0217,0,0,0,0,0,0,0,0,0.0036,0.0031,-0.0006,-0.001,-0.0014,-0.0067,-0.0069,-0.0113,-0.01,-0.0069,-0.0101,-0.0101,-0.0156,-0.0163,-0.0177,-0.0227,-0.0231,-0.0215,-0.0218,-0.0219,-0.022,0,0,0,0,0,0,0,0.0039,0.0034,-0.001,-0.0007,-0.0012,-0.0037,-0.0043,-0.0078,-0.0112,-0.0072,-0.0075,-0.0082,-0.0158,-0.0174,-0.018,-0.0233,-0.0215,-0.0219,-0.0221,-0.0222,-0.0296,-0.0296,0,0,0,0,0,0,0.0053,0.0037,-0.0008,-0.0012,0.0012,-0.0038,-0.0045,-0.0051,-0.0111,-0.012,-0.0081,-0.0083,-0.0167,-0.0176,-0.0184,-0.0193,-0.0219,-0.0223,-0.0225,-0.0296,-0.0296,-0.0296,0,0,0,0,0,0,0.0055,0.005,-0.0005,0.0011,0.0003,-0.0038,-0.0044,-0.0052,-0.0065,-0.0118,-0.0127,-0.0086,-0.0168,-0.0178,-0.0208,-0.0198,-0.0224,-0.0228,-0.0296,-0.0296,-0.0296,-0.0223,0,0,0,0,0,0,0.0057,0.0051,0.0053,0.0012,0.0002,-0.002,-0.0044,-0.0053,-0.0068,-0.0072,-0.0125,-0.0134,-0.0169,-0.0203,-0.0212,-0.0204,-0.0231,-0.0297,-0.0296,-0.0296,-0.0226,-0.0221,-0.0216,0,0,0,0,0,0.0059,0.0066,0.0054,0.0048,0.0007,-0.0019,-0.0027,-0.0058,-0.0068,-0.0071,-0.0106,-0.0133,-0.0206,-0.0205,-0.0217,-0.0209,-0.0297,-0.0296,-0.0296,-0.0228,-0.0222,-0.0216,0,0,0,0,0,0,0.0092,0.006,0.0047,0.0043,0.0017,-0.0026,-0.003,-0.0052,-0.0082,-0.0082,-0.0132,-0.0144,-0.0166,-0.0199,-0.0197,-0.0229,-0.0255,-0.0257,-0.02,-0.0194,-0.0189,-0.0172,-0.0234,0,0,0,0,0,0.0102,0.0099,0.0062,0.006,0.0051,0.0012,-0.0001,-0.0022,-0.0054,-0.0067,-0.0104,-0.0141,-0.0174,-0.0191,-0.0225,-0.0244,-0.027,-0.0247,-0.0241,-0.0237,-0.0231,-0.0262,-0.0259,-0.0294,-0.0294,-0.0294,0,0,0.0114,0.0097,0.0095,0.0067,0.0046,0.0039,0.0003,-0.001,-0.0015,-0.0073,-0.0088,-0.0126,-0.0175,-0.0195,-0.0207,-0.022,-0.0239,-0.0236,-0.0231,-0.0228,-0.0261,-0.0258,-0.0255,-0.0293,-0.0293,-0.0293,0,0,0.0141,0.0124,0.0131,0.0114,0.0089,0.0064,0.0064,0.0026,0.0011,-0.0011,-0.0051,-0.008,-0.0131,-0.0162,-0.0185,-0.0173,-0.0211,-0.0183,-0.0144,-0.0174,-0.0171,-0.0169,-0.0187,-0.0187,-0.018,-0.018,-0.0179,0,0.0159,0.016,0.0129,0.0131,0.0124,0.0081,0.0087,0.0065,0.0023,0.0014,-0.0004,-0.0073,-0.0115,-0.014,-0.0136,-0.0161,-0.018,-0.0161,-0.0166,-0.0164,-0.0164,-0.0182,-0.0183,-0.0176,-0.0176,-0.0177,-0.0177,0,0.0186,0.0189,0.0193,0.0183,0.0171,0.017,0.0137,0.0127,0.0103,0.0075,0.0048,-0.0009,-0.0048,-0.0066,-0.0099,-0.0112,-0.0127,-0.0154,-0.0177,-0.0155,-0.0177,-0.0179,-0.0171,-0.0172,-0.0173,-0.0174,0,0,0.0222,0.0215,0.0217,0.0224,0.0199,0.0193,0.0192,0.0173,0.0177,0.0131,0.0129,0.0068,0.0037,0.0009,-0.0036,-0.0064,-0.0074,-0.0099,-0.0103,-0.0109,-0.0129,-0.0143,-0.0148,-0.0101,-0.0101,-0.0102,-0.0142,0,0.0254,0.0277,0.026,0.028,0.0289,0.0258,0.0261,0.024,0.0214,0.0201,0.0143,0.012,0.0065,0.0052,0.0015,-0.0054,-0.0079,-0.006,-0.0157,-0.016,-0.0168,-0.015,-0.0137,-0.0173,-0.0145,-0.0145,-0.0146,0,0.0284,0.0298,0.0326,0.0336,0.0337,0.0341,0.0341,0.0341,0.031,0.0291,0.0255,0.0205,0.0157,0.011,0.001,0.0026,-0.0042,-0.0097,-0.01,-0.0141,-0.0178,-0.0194,-0.0179,-0.015,-0.015,-0.015,-0.0149,0,0.0324,0.0342,0.0368,0.037,0.0373,0.0383,0.0387,0.0369,0.0382,0.0351,0.0354,0.0278,0.0254,0.0155,0.0041,0.0026,-0.0065,-0.0105,-0.0179,-0.0181,-0.0203,-0.0206,-0.017,-0.017,-0.017,-0.017,-0.017,0,0.0361,0.0382,0.0391,0.0405,0.0446,0.0431,0.0469,0.046,0.0461,0.0491,0.0408,0.0413,0.0264,0.0192,0.0073,-0.0051,-0.0042,-0.0165,-0.0192,-0.0177,-0.0177,-0.0189,-0.0191,-0.0171,-0.0171,-0.0171,-0.017,0,0.0394,0.0399,0.0434,0.0453,0.0465,0.0496,0.0534,0.0563,0.0554,0.0592,0.059,0.0518,0.0426,0.0277,0.0124,0.0004,-0.0123,-0.017,-0.0133,-0.0156,-0.0229,-0.0226,-0.0263,-0.0264,-0.0265,-0.0265,-0.0266,0,0.0413,0.0435,0.0476,0.0507,0.0518,0.0563,0.0601,0.0612,0.0647,0.0664,0.0689,0.0616,0.0579,0.0347,0.0128,-0.0075,-0.0108,-0.0206,-0.0244,-0.0216,-0.0238,-0.0235,-0.0231,-0.0241,-0.0241,-0.0241,-0.0242,0,0.0455,0.0466,0.0499,0.0564,0.0609,0.0666,0.072,0.0762,0.0789,0.0821,0.0854,0.083,0.062,0.0413,0.013,-0.0017,-0.0178,-0.0218,-0.0197,-0.0218,-0.0198,-0.0219,-0.0216,-0.0243,-0.0243,-0.0243,-0.0243,-0.0243,0.0489,0.0521,0.0566,0.0624,0.0686,0.0759,0.0812,0.0872,0.0945,0.0989,0.0971,0.0938,0.0705,0.0342,0.0092,-0.0179,-0.0171,-0.0282,-0.028,-0.0278,-0.0267,-0.0249,-0.0302,-0.0302,-0.0302,-0.0302,-0.0302,0,0.0531,0.0566,0.0624,0.0699,0.0766,0.0794,0.0885,0.0922,0.1014,0.1068,0.1088,0.0862,0.0644,0.038,-0.0014,-0.0254,-0.0278,-0.0338,-0.0314,-0.031,-0.0307,-0.0297,-0.034,-0.0341,-0.0342,-0.0342,0,0,0.0559,0.0614,0.0637,0.0748,0.0808,0.0898,0.0952,0.1002,0.1049,0.1076,0.1073,0.1037,0.0736,0.044,0.0116,-0.0107,-0.0158,-0.016,-0.0105,-0.0034,-0.0029,-0.0252,-0.023,0,0,0,0,0]}],[{"header":{"parameterUnit":"m.s-1","parameterCategory":2,"la1":30.2991,"la2":30.254,"lo1":-89.0895,"lo2":-89.0444,"dx":0.0017,"dy":0.0017,"nx":28,"ny":28,"refTime":"2022-12-14T09:00:00:Z","depth":"4","parameterNumber":2,"parameterNumberName":"U-component_of_CURRENTS"},"data":[0,0,0,0,0,0,0,0,0,0,0,0,0,0,0,0,0,0,0,0,0,0,0,0,0,0,0,0,0,0,0,0,0,0,0,0,0,0,0,0,0,0,0,0,0,0,0,0,0,0,0,0,0,0,0,0,0,0,0.1312,0.1312,0,0.137,0.137,0.1371,0.1416,0.1417,0.1418,0.1418,0.1489,0.149,0.1491,0,0,0,0,0,0,0,0,0,0,0,0,0,0.123,0.1231,0.1311,0.1312,0.1313,0.137,0.137,0.1371,0.1416,0.1417,0.1418,0.1419,0.1488,0.149,0.1491,0,0,0,0,0,0,0,0,0,0,0,0,0,0.1273,0.1231,0.1311,0.1344,0.1348,0.137,0.137,0.1371,0.1416,0.1417,0.1418,0.1419,0.1488,0.149,0.1492,0.1485,0,0,0.1498,0.1498,0,0,0,0,0,0,0,0,0.127,0.1275,0.1338,0.1342,0.1346,0.1388,0.1368,0.141,0.1416,0.1388,0.1418,0.1419,0.1457,0.1461,0.1467,0.1488,0.1491,0.1498,0.1499,0.15,0.15,0,0,0,0,0,0,0,0.1267,0.1273,0.1333,0.1339,0.1344,0.1353,0.136,0.1376,0.1415,0.1391,0.1395,0.1404,0.1459,0.1465,0.147,0.1492,0.1498,0.1499,0.1501,0.1501,0.1605,0.1607,0,0,0,0,0,0,0.1263,0.127,0.1331,0.1335,0.1312,0.1354,0.1361,0.1372,0.1415,0.1423,0.1403,0.1406,0.1462,0.1467,0.1472,0.155,0.15,0.1502,0.1503,0.1603,0.1605,0.1607,0,0,0,0,0,0,0.1261,0.1268,0.1329,0.1305,0.1314,0.1354,0.1366,0.1373,0.141,0.1425,0.1433,0.1436,0.1463,0.1469,0.1516,0.155,0.1502,0.1504,0.1602,0.1604,0.1606,0.1652,0,0,0,0,0,0,0.1259,0.1267,0.1287,0.1305,0.1315,0.1361,0.1366,0.1374,0.1413,0.1418,0.1455,0.1461,0.1464,0.1513,0.1518,0.1551,0.1506,0.16,0.1603,0.1605,0.1648,0.1655,0.1661,0,0,0,0,0,0.1256,0.1274,0.1287,0.1296,0.1336,0.1363,0.1369,0.1399,0.1414,0.1434,0.1463,0.1461,0.1536,0.1516,0.1521,0.1556,0.1598,0.1602,0.1605,0.1645,0.1654,0.1661,0,0,0,0,0,0,0.1249,0.1281,0.1296,0.1324,0.1352,0.1372,0.1398,0.1414,0.1452,0.1467,0.1478,0.1486,0.154,0.1542,0.152,0.1596,0.1568,0.1572,0.1596,0.1605,0.1611,0.1607,0.1507,0,0,0,0,0,0.1256,0.1282,0.1308,0.1335,0.1351,0.138,0.14,0.1421,0.1449,0.1469,0.1495,0.1525,0.1553,0.1575,0.1597,0.1636,0.1638,0.1664,0.167,0.1676,0.1677,0.1708,0.1717,0.1619,0.1619,0.1619,0,0,0.1261,0.1283,0.1299,0.1337,0.1362,0.1389,0.1395,0.1435,0.1464,0.1469,0.1528,0.1551,0.1569,0.1615,0.164,0.1626,0.1707,0.168,0.1685,0.1683,0.1712,0.1722,0.173,0.1621,0.1621,0.162,0,0,0.1273,0.1306,0.1328,0.1354,0.1399,0.1416,0.1434,0.1472,0.1502,0.1551,0.1566,0.1608,0.1653,0.1671,0.1684,0.174,0.174,0.1757,0.1789,0.182,0.1828,0.1835,0.1856,0.1865,0.1762,0.1762,0.1762,0,0.128,0.131,0.1339,0.1367,0.1393,0.1431,0.1458,0.1491,0.1542,0.1569,0.1581,0.1657,0.1676,0.1723,0.1749,0.1755,0.1772,0.1756,0.1828,0.1835,0.1841,0.1861,0.187,0.1764,0.1764,0.1764,0.1764,0,0.1298,0.1334,0.1353,0.14,0.143,0.1465,0.1507,0.155,0.1591,0.1621,0.1689,0.1718,0.1762,0.178,0.1785,0.1845,0.1842,0.183,0.1804,0.1853,0.1872,0.188,0.1768,0.1767,0.1766,0.1766,0,0,0.1279,0.135,0.136,0.1388,0.1453,0.1475,0.1534,0.1588,0.163,0.1688,0.1741,0.1797,0.1821,0.1838,0.1855,0.1885,0.195,0.1887,0.1887,0.1901,0.2022,0.1911,0.1909,0.1957,0.1959,0.196,0.2019,0,0.1287,0.1336,0.1374,0.1428,0.1456,0.1511,0.156,0.1617,0.1672,0.1734,0.1779,0.1838,0.1841,0.1876,0.1909,0.1943,0.1974,0.1935,0.1977,0.1978,0.1868,0.1915,0.1965,0.2025,0.2027,0.2028,0.2029,0,0.1285,0.1322,0.1372,0.1444,0.1463,0.1505,0.1587,0.1637,0.1727,0.1772,0.1836,0.1876,0.1945,0.1935,0.2013,0.1994,0.2016,0.2032,0.2034,0.1917,0.1882,0.1965,0.2044,0.2043,0.2042,0.2041,0.204,0,0.1243,0.1317,0.1358,0.1384,0.1471,0.1512,0.1567,0.1654,0.1702,0.1806,0.1854,0.1929,0.1984,0.2023,0.2072,0.2055,0.2148,0.2119,0.2035,0.2027,0.2089,0.208,0.2167,0.2167,0.2167,0.2166,0.2166,0,0.1222,0.1258,0.1348,0.1371,0.1428,0.1499,0.1571,0.1635,0.1729,0.1786,0.1876,0.1924,0.2014,0.2075,0.2097,0.2096,0.217,0.2045,0.2036,0.2108,0.2101,0.2095,0.2086,0.2169,0.2168,0.2168,0.2167,0,0.1168,0.1228,0.1279,0.1376,0.1411,0.1454,0.1567,0.1611,0.1716,0.1793,0.1832,0.1946,0.2024,0.2094,0.2168,0.2118,0.2132,0.2113,0.22,0.2194,0.1982,0.1975,0.2006,0.2003,0.2,0.1998,0.1996,0,0.1142,0.1164,0.1268,0.13,0.1351,0.143,0.1481,0.1593,0.1636,0.1787,0.1808,0.193,0.1996,0.2008,0.209,0.2121,0.21,0.2088,0.2014,0.1979,0.1967,0.1965,0.1962,0.1991,0.199,0.1989,0.1989,0,0.1087,0.1135,0.1176,0.1245,0.1304,0.1359,0.1441,0.1459,0.1586,0.1695,0.1745,0.1794,0.1879,0.1932,0.1983,0.1997,0.208,0.2057,0.2062,0.1992,0.1961,0.1951,0.1952,0.1979,0.198,0.1981,0.1982,0,0.1045,0.1059,0.1119,0.1169,0.1235,0.1261,0.1322,0.1375,0.1431,0.1588,0.1605,0.174,0.1856,0.1871,0.1915,0.1926,0.1888,0.1814,0.1831,0.1843,0.1764,0.1699,0.1632,0,0,0,0,0,0.0987,0.0993,0.1037,0.1077,0.1138,0.1183,0.1275,0.1338,0.1458,0.1451,0.1521,0.1593,0.1659,0.1729,0.1709,0.1847,0.1898,0.1815,0.1822,0.1923,0.1935,0.1857,0,0,0,0,0,0,0.0951,0.0981,0.1,0.0984,0.1003,0.1059,0.112,0.1212,0.1212,0.1344,0.1389,0.1494,0.1584,0.1654,0.1676,0.1699,0.1671,0.1902,0.1897,0.1916,0.1927,0.1936,0.1861,0,0,0,0,0]},{"header":{"parameterUnit":"m.s-1","parameterCategory":2,"la1":30.2991,"la2":30.254,"lo1":-89.0895,"lo2":-89.0444,"dx":0.0017,"dy":0.0017,"nx":28,"ny":28,"refTime":"2022-12-14T09:00:00:Z","depth":"4","parameterNumber":3,"parameterNumberName":"V-component_of_CURRENTS"},"data":[0,0,0,0,0,0,0,0,0,0,0,0,0,0,0,0,0,0,0,0,0,0,0,0,0,0,0,0,0,0,0,0,0,0,0,0,0,0,0,0,0,0,0,0,0,0,0,0,0,0,0,0,0,0,0,0,0,0,-0.0106,-0.0107,0,-0.0156,-0.0157,-0.0157,-0.0194,-0.0194,-0.0194,-0.0195,-0.0272,-0.0274,-0.0276,0,0,0,0,0,0,0,0,0,0,0,0,0,-0.0071,-0.0071,-0.0106,-0.0107,-0.0107,-0.0156,-0.0157,-0.0158,-0.0194,-0.0194,-0.0195,-0.0195,-0.0272,-0.0274,-0.0276,0,0,0,0,0,0,0,0,0,0,0,0,0,-0.0101,-0.0071,-0.0106,-0.0131,-0.0133,-0.0156,-0.0157,-0.0158,-0.0194,-0.0194,-0.0195,-0.0195,-0.0271,-0.0274,-0.0276,-0.0286,0,0,-0.0285,-0.0286,0,0,0,0,0,0,0,0,-0.0099,-0.0102,-0.0126,-0.0129,-0.0132,-0.0169,-0.0173,-0.0202,-0.0194,-0.0172,-0.0195,-0.0195,-0.0239,-0.0245,-0.0254,-0.029,-0.0293,-0.0285,-0.0287,-0.0288,-0.0289,0,0,0,0,0,0,0,-0.0097,-0.01,-0.0127,-0.0127,-0.013,-0.0149,-0.0154,-0.0179,-0.0204,-0.0174,-0.0176,-0.018,-0.0241,-0.0251,-0.0256,-0.0294,-0.0285,-0.0287,-0.0289,-0.029,-0.0346,-0.0346,0,0,0,0,0,0,-0.0087,-0.0098,-0.0125,-0.0128,-0.0115,-0.0149,-0.0154,-0.0157,-0.0203,-0.021,-0.018,-0.0182,-0.0246,-0.0253,-0.0259,-0.027,-0.0288,-0.0291,-0.0292,-0.0347,-0.0346,-0.0346,0,0,0,0,0,0,-0.0086,-0.0089,-0.0123,-0.0114,-0.0119,-0.0149,-0.0152,-0.0158,-0.0169,-0.0208,-0.0215,-0.0186,-0.0247,-0.0255,-0.028,-0.0274,-0.0292,-0.0294,-0.0347,-0.0347,-0.0346,-0.0295,0,0,0,0,0,0,-0.0085,-0.0088,-0.0087,-0.0113,-0.0119,-0.0133,-0.0152,-0.0158,-0.0171,-0.0174,-0.0215,-0.0223,-0.0248,-0.0275,-0.0282,-0.0278,-0.0296,-0.0347,-0.0347,-0.0346,-0.0297,-0.0293,-0.029,0,0,0,0,0,-0.0084,-0.0079,-0.0087,-0.009,-0.0117,-0.0133,-0.0138,-0.0161,-0.0171,-0.0173,-0.0201,-0.0222,-0.0278,-0.0277,-0.0286,-0.0282,-0.0347,-0.0347,-0.0346,-0.0299,-0.0294,-0.029,0,0,0,0,0,0,-0.0065,-0.0083,-0.0092,-0.0093,-0.011,-0.0138,-0.0142,-0.0158,-0.0181,-0.0184,-0.0221,-0.023,-0.025,-0.0273,-0.0271,-0.0298,-0.0316,-0.0317,-0.0277,-0.0272,-0.0269,-0.0256,-0.0299,0,0,0,0,0,-0.0058,-0.0059,-0.0081,-0.0082,-0.0088,-0.0114,-0.0123,-0.0138,-0.0162,-0.0172,-0.02,-0.0229,-0.0254,-0.0268,-0.0294,-0.0309,-0.033,-0.0312,-0.0308,-0.0305,-0.03,-0.0328,-0.0327,-0.0345,-0.0345,-0.0345,0,0,-0.0052,-0.0061,-0.0062,-0.0078,-0.0092,-0.0095,-0.0121,-0.013,-0.0133,-0.0177,-0.019,-0.0219,-0.0256,-0.0272,-0.0282,-0.0291,-0.031,-0.0305,-0.0302,-0.0299,-0.0328,-0.0326,-0.0324,-0.0345,-0.0345,-0.0345,0,0,-0.0036,-0.0045,-0.004,-0.0049,-0.0065,-0.008,-0.008,-0.0105,-0.0117,-0.0133,-0.0164,-0.0189,-0.0226,-0.025,-0.0268,-0.026,-0.0291,-0.0269,-0.024,-0.0267,-0.0265,-0.0264,-0.0283,-0.0284,-0.0266,-0.0266,-0.0266,0,-0.0027,-0.0023,-0.0041,-0.0037,-0.004,-0.0069,-0.0064,-0.0079,-0.0109,-0.0115,-0.013,-0.0182,-0.0215,-0.0235,-0.0233,-0.0252,-0.0269,-0.0251,-0.0261,-0.0261,-0.026,-0.028,-0.0282,-0.0263,-0.0264,-0.0264,-0.0264,0,-0.0008,-0.0004,-0.0,-0.0003,-0.0009,-0.0009,-0.0029,-0.0035,-0.0052,-0.0072,-0.0094,-0.0137,-0.0167,-0.0182,-0.0207,-0.022,-0.0233,-0.0253,-0.0269,-0.0255,-0.0277,-0.028,-0.026,-0.0261,-0.0261,-0.0262,0,0,0.0007,0.0013,0.0014,0.0022,0.001,0.0008,0.001,-0.0001,0.0002,-0.0031,-0.0033,-0.0082,-0.0105,-0.0127,-0.0162,-0.0186,-0.0202,-0.0214,-0.0217,-0.0226,-0.0254,-0.025,-0.0253,-0.0223,-0.0223,-0.0223,-0.0267,0,0.0026,0.0047,0.0042,0.0061,0.0069,0.0054,0.0059,0.0047,0.003,0.0021,-0.0025,-0.0042,-0.0084,-0.0094,-0.0127,-0.0184,-0.0208,-0.0188,-0.0271,-0.0273,-0.0267,-0.0255,-0.0224,-0.0269,-0.027,-0.027,-0.0271,0,0.0043,0.0057,0.0081,0.01,0.0102,0.011,0.0117,0.012,0.01,0.0087,0.006,0.0023,-0.0018,-0.0053,-0.0141,-0.0125,-0.0182,-0.0228,-0.0231,-0.0247,-0.0274,-0.0289,-0.0276,-0.0276,-0.0275,-0.0275,-0.0275,0,0.0061,0.0083,0.0106,0.0111,0.0125,0.0138,0.0147,0.014,0.0152,0.0133,0.0135,0.0076,0.0054,-0.0027,-0.0123,-0.0131,-0.0218,-0.0244,-0.0294,-0.0294,-0.0308,-0.0309,-0.0302,-0.0302,-0.0302,-0.0302,-0.0302,0,0.0079,0.0098,0.012,0.0133,0.0168,0.0169,0.0201,0.0202,0.021,0.0228,0.0174,0.017,0.006,-0.0004,-0.0101,-0.02,-0.0203,-0.0283,-0.0304,-0.0285,-0.0282,-0.031,-0.031,-0.0304,-0.0303,-0.0303,-0.0303,0,0.0087,0.0103,0.0132,0.0161,0.0177,0.0202,0.0247,0.0267,0.0272,0.0297,0.0297,0.0244,0.0161,0.0048,-0.008,-0.016,-0.0263,-0.0299,-0.0256,-0.0275,-0.0328,-0.0325,-0.0357,-0.0357,-0.0357,-0.0357,-0.0357,0,0.009,0.0106,0.0153,0.0178,0.0193,0.0236,0.0268,0.0296,0.0321,0.034,0.035,0.0294,0.024,0.0074,-0.0058,-0.023,-0.0261,-0.0312,-0.0333,-0.0315,-0.0333,-0.033,-0.0327,-0.0358,-0.0358,-0.0358,-0.0358,0,0.0089,0.0106,0.013,0.0187,0.0228,0.0279,0.0327,0.0355,0.039,0.0401,0.0403,0.0323,0.0233,0.0088,-0.0039,-0.0169,-0.0279,-0.0314,-0.0316,-0.0336,-0.0317,-0.0333,-0.033,-0.0358,-0.0358,-0.0358,-0.0358,0,0.008,0.0097,0.0132,0.0183,0.0235,0.0292,0.033,0.0369,0.0405,0.0434,0.0435,0.0343,0.0298,0.012,-0.0003,-0.0123,-0.0166,-0.0214,-0.0222,-0.0223,-0.0178,-0.0134,-0.013,0,0,0,0,0,0.0064,0.0083,0.0126,0.018,0.0233,0.0276,0.0348,0.0384,0.043,0.0442,0.0445,0.0365,0.0206,0.0134,0.0014,-0.0037,-0.0208,-0.0184,-0.0273,-0.0362,-0.0361,-0.0332,0,0,0,0,0,0,0.0054,0.0082,0.0113,0.0164,0.0204,0.0273,0.0327,0.0372,0.0381,0.0414,0.0332,0.0322,0.016,0.0271,0.0006,-0.0029,-0.0105,-0.0252,-0.0254,-0.0362,-0.0361,-0.0361,-0.0331,0,0,0,0,0]}]]